"Time","Value","Approval","myLocation"
"2023-05-06 00:00",11.5910437244782,"Approved","OW467"
"2023-05-06 01:00",11.5960421396838,"Approved","OW467"
"2023-05-06 02:00",11.5950405548894,"Approved","OW467"
"2023-05-06 03:00",11.5950389700949,"Approved","OW467"
"2023-05-06 04:00",11.5910373853005,"Approved","OW467"
"2023-05-06 05:00",11.5880358005061,"Approved","OW467"
"2023-05-06 06:00",11.5870342157117,"Approved","OW467"
"2023-05-06 07:00",11.5900326309172,"Approved","OW467"
"2023-05-06 08:00",11.5920310461228,"Approved","OW467"
"2023-05-06 09:00",11.5910294613284,"Approved","OW467"
"2023-05-06 10:00",11.5890278765339,"Approved","OW467"
"2023-05-06 11:00",11.5920262917395,"Approved","OW467"
"2023-05-06 12:00",11.5950247069451,"Approved","OW467"
"2023-05-06 13:00",11.5950231221507,"Approved","OW467"
"2023-05-06 14:00",11.5970215373562,"Approved","OW467"
"2023-05-06 15:00",11.5990199525618,"Approved","OW467"
"2023-05-06 16:00",11.6030183677674,"Approved","OW467"
"2023-05-06 17:00",11.610016782973,"Approved","OW467"
"2023-05-06 18:00",11.6140151981785,"Approved","OW467"
"2023-05-06 19:00",11.6200136133841,"Approved","OW467"
"2023-05-06 20:00",11.6360120285897,"Approved","OW467"
"2023-05-06 21:00",11.6530104437953,"Approved","OW467"
"2023-05-06 22:00",11.6480088590008,"Approved","OW467"
"2023-05-06 23:00",11.6420072742064,"Approved","OW467"
"2023-05-07 00:00",11.642005689412,"Approved","OW467"
"2023-05-07 01:00",11.6070041046176,"Approved","OW467"
"2023-05-07 02:00",11.5850025198231,"Approved","OW467"
"2023-05-07 03:00",11.5790009350287,"Approved","OW467"
"2023-05-07 04:00",11.5789993502343,"Approved","OW467"
"2023-05-07 05:00",11.5819977654399,"Approved","OW467"
"2023-05-07 06:00",11.5859961806454,"Approved","OW467"
"2023-05-07 07:00",11.589994595851,"Approved","OW467"
"2023-05-07 08:00",11.5909930110566,"Approved","OW467"
"2023-05-07 09:00",11.5929914262622,"Approved","OW467"
"2023-05-07 10:00",11.5969898414677,"Approved","OW467"
"2023-05-07 11:00",11.6009882566733,"Approved","OW467"
"2023-05-07 12:00",11.5969866718789,"Approved","OW467"
"2023-05-07 13:00",11.6009850870845,"Approved","OW467"
"2023-05-07 14:00",11.61198350229,"Approved","OW467"
"2023-05-07 15:00",11.6569819174956,"Approved","OW467"
"2023-05-07 16:00",11.6919803327012,"Approved","OW467"
"2023-05-07 17:00",11.7109787479068,"Approved","OW467"
"2023-05-07 18:00",11.7019771631123,"Approved","OW467"
"2023-05-07 19:00",11.7069755783179,"Approved","OW467"
"2023-05-07 20:00",11.6759739935235,"Approved","OW467"
"2023-05-07 21:00",11.652972408729,"Approved","OW467"
"2023-05-07 22:00",11.6489708239346,"Approved","OW467"
"2023-05-07 23:00",11.6229692391402,"Approved","OW467"
"2023-05-08 00:00",11.6039676543458,"Approved","OW467"
"2023-05-08 01:00",11.5939660695513,"Approved","OW467"
"2023-05-08 02:00",11.5839644847569,"Approved","OW467"
"2023-05-08 03:00",11.5689628999625,"Approved","OW467"
"2023-05-08 04:00",11.5429613151681,"Approved","OW467"
"2023-05-08 05:00",11.5519597303736,"Approved","OW467"
"2023-05-08 06:00",11.5579581455792,"Approved","OW467"
"2023-05-08 07:00",11.5629565607848,"Approved","OW467"
"2023-05-08 08:00",11.5709549759904,"Approved","OW467"
"2023-05-08 09:00",11.5699533911959,"Approved","OW467"
"2023-05-08 10:00",11.5769518064015,"Approved","OW467"
"2023-05-08 11:00",11.5869502216071,"Approved","OW467"
"2023-05-08 12:00",11.5839486368127,"Approved","OW467"
"2023-05-08 13:00",11.5859470520182,"Approved","OW467"
"2023-05-08 14:00",11.6009454672238,"Approved","OW467"
"2023-05-08 15:00",11.6219438824294,"Approved","OW467"
"2023-05-08 16:00",11.640942297635,"Approved","OW467"
"2023-05-08 17:00",11.6809407128405,"Approved","OW467"
"2023-05-08 18:00",11.7119391280461,"Approved","OW467"
"2023-05-08 19:00",11.7079375432517,"Approved","OW467"
"2023-05-08 20:00",11.6919359584573,"Approved","OW467"
"2023-05-08 21:00",11.5939343736628,"Approved","OW467"
"2023-05-08 22:00",11.5429327888684,"Approved","OW467"
"2023-05-08 23:00",11.635931204074,"Approved","OW467"
"2023-05-09 00:00",11.6759296192796,"Approved","OW467"
"2023-05-09 01:00",11.6509280344851,"Approved","OW467"
"2023-05-09 02:00",11.6339264496907,"Approved","OW467"
"2023-05-09 03:00",11.5689248648963,"Approved","OW467"
"2023-05-09 04:00",11.5369232801018,"Approved","OW467"
"2023-05-09 05:00",11.5349216953074,"Approved","OW467"
"2023-05-09 06:00",11.534920110513,"Approved","OW467"
"2023-05-09 07:00",11.5429185257186,"Approved","OW467"
"2023-05-09 08:00",11.5609169409241,"Approved","OW467"
"2023-05-09 09:00",11.5649153561297,"Approved","OW467"
"2023-05-09 10:00",11.5629137713353,"Approved","OW467"
"2023-05-09 11:00",11.5599121865409,"Approved","OW467"
"2023-05-09 12:00",11.5689106017464,"Approved","OW467"
"2023-05-09 13:00",11.584909016952,"Approved","OW467"
"2023-05-09 14:00",11.5959074321576,"Approved","OW467"
"2023-05-09 15:00",11.6809058473632,"Approved","OW467"
"2023-05-09 16:00",11.7199042625687,"Approved","OW467"
"2023-05-09 17:00",11.7229026777743,"Approved","OW467"
"2023-05-09 18:00",11.7269010929799,"Approved","OW467"
"2023-05-09 19:00",11.7138995081855,"Approved","OW467"
"2023-05-09 20:00",11.698897923391,"Approved","OW467"
"2023-05-09 21:00",11.6918963385966,"Approved","OW467"
"2023-05-09 22:00",11.6858947538022,"Approved","OW467"
"2023-05-09 23:00",11.6208931690078,"Approved","OW467"
"2023-05-10 00:00",11.5928915842133,"Approved","OW467"
"2023-05-10 01:00",11.5888899994189,"Approved","OW467"
"2023-05-10 02:00",11.5798884146245,"Approved","OW467"
"2023-05-10 03:00",11.5558868298301,"Approved","OW467"
"2023-05-10 04:00",11.5418852450356,"Approved","OW467"
"2023-05-10 05:00",11.5448836602412,"Approved","OW467"
"2023-05-10 06:00",11.5608820754468,"Approved","OW467"
"2023-05-10 07:00",11.5658804906524,"Approved","OW467"
"2023-05-10 08:00",11.5718789058579,"Approved","OW467"
"2023-05-10 09:00",11.5808773210635,"Approved","OW467"
"2023-05-10 10:00",11.5868757362691,"Approved","OW467"
"2023-05-10 11:00",11.5888741514747,"Approved","OW467"
"2023-05-10 12:00",11.5978725666802,"Approved","OW467"
"2023-05-10 13:00",11.6018709818858,"Approved","OW467"
"2023-05-10 14:00",11.6138693970914,"Approved","OW467"
"2023-05-10 15:00",11.6698678122969,"Approved","OW467"
"2023-05-10 16:00",11.7118662275025,"Approved","OW467"
"2023-05-10 17:00",11.7168646427081,"Approved","OW467"
"2023-05-10 18:00",11.7188630579137,"Approved","OW467"
"2023-05-10 19:00",11.7138614731192,"Approved","OW467"
"2023-05-10 20:00",11.6398598883248,"Approved","OW467"
"2023-05-10 21:00",11.6578583035304,"Approved","OW467"
"2023-05-10 22:00",11.646856718736,"Approved","OW467"
"2023-05-10 23:00",11.6568551339415,"Approved","OW467"
"2023-05-11 00:00",11.6478535491471,"Approved","OW467"
"2023-05-11 01:00",11.6568519643527,"Approved","OW467"
"2023-05-11 02:00",11.6058503795583,"Approved","OW467"
"2023-05-11 03:00",11.5678487947638,"Approved","OW467"
"2023-05-11 04:00",11.5388472099694,"Approved","OW467"
"2023-05-11 05:00",11.541845625175,"Approved","OW467"
"2023-05-11 06:00",11.5438440403806,"Approved","OW467"
"2023-05-11 07:00",11.5468424555861,"Approved","OW467"
"2023-05-11 08:00",11.5508408707917,"Approved","OW467"
"2023-05-11 09:00",11.5538392859973,"Approved","OW467"
"2023-05-11 10:00",11.5588377012029,"Approved","OW467"
"2023-05-11 11:00",11.5668361164084,"Approved","OW467"
"2023-05-11 12:00",11.574834531614,"Approved","OW467"
"2023-05-11 13:00",11.5848329468196,"Approved","OW467"
"2023-05-11 14:00",11.6008313620252,"Approved","OW467"
"2023-05-11 15:00",11.6928297772307,"Approved","OW467"
"2023-05-11 16:00",11.7228281924363,"Approved","OW467"
"2023-05-11 17:00",11.7338266076419,"Approved","OW467"
"2023-05-11 18:00",11.7388250228475,"Approved","OW467"
"2023-05-11 19:00",11.736823438053,"Approved","OW467"
"2023-05-11 20:00",11.7358218532586,"Approved","OW467"
"2023-05-11 21:00",11.7158202684642,"Approved","OW467"
"2023-05-11 22:00",11.7058186836698,"Approved","OW467"
"2023-05-11 23:00",11.6908170988753,"Approved","OW467"
"2023-05-12 00:00",11.6678155140809,"Approved","OW467"
"2023-05-12 01:00",11.6408139292865,"Approved","OW467"
"2023-05-12 02:00",11.610812344492,"Approved","OW467"
"2023-05-12 03:00",11.5828107596976,"Approved","OW467"
"2023-05-12 04:00",11.5408091749032,"Approved","OW467"
"2023-05-12 05:00",11.5348075901088,"Approved","OW467"
"2023-05-12 06:00",11.5268060053143,"Approved","OW467"
"2023-05-12 07:00",11.5298044205199,"Approved","OW467"
"2023-05-12 08:00",11.5388028357255,"Approved","OW467"
"2023-05-12 09:00",11.5448012509311,"Approved","OW467"
"2023-05-12 10:00",11.5567996661366,"Approved","OW467"
"2023-05-12 11:00",11.5687980813422,"Approved","OW467"
"2023-05-12 12:00",11.5737964965478,"Approved","OW467"
"2023-05-12 13:00",11.5877949117534,"Approved","OW467"
"2023-05-12 14:00",11.6107933269589,"Approved","OW467"
"2023-05-12 15:00",11.7097917421645,"Approved","OW467"
"2023-05-12 16:00",11.7487901573701,"Approved","OW467"
"2023-05-12 17:00",11.7537885725757,"Approved","OW467"
"2023-05-12 18:00",11.7567869877812,"Approved","OW467"
"2023-05-12 19:00",11.7597854029868,"Approved","OW467"
"2023-05-12 20:00",11.7547838181924,"Approved","OW467"
"2023-05-12 21:00",11.752782233398,"Approved","OW467"
"2023-05-12 22:00",11.7447806486035,"Approved","OW467"
"2023-05-12 23:00",11.7317790638091,"Approved","OW467"
"2023-05-13 00:00",11.6987774790147,"Approved","OW467"
"2023-05-13 01:00",11.6627758942203,"Approved","OW467"
"2023-05-13 02:00",11.6297743094258,"Approved","OW467"
"2023-05-13 03:00",11.6047727246314,"Approved","OW467"
"2023-05-13 04:00",11.560771139837,"Approved","OW467"
"2023-05-13 05:00",11.5517695550426,"Approved","OW467"
"2023-05-13 06:00",11.5437679702481,"Approved","OW467"
"2023-05-13 07:00",11.5417663854537,"Approved","OW467"
"2023-05-13 08:00",11.5507648006593,"Approved","OW467"
"2023-05-13 09:00",11.5607632158648,"Approved","OW467"
"2023-05-13 10:00",11.5707616310704,"Approved","OW467"
"2023-05-13 11:00",11.581760046276,"Approved","OW467"
"2023-05-13 12:00",11.5897584614816,"Approved","OW467"
"2023-05-13 13:00",11.6017568766871,"Approved","OW467"
"2023-05-13 14:00",11.6237552918927,"Approved","OW467"
"2023-05-13 15:00",11.7207537070983,"Approved","OW467"
"2023-05-13 16:00",11.7487521223039,"Approved","OW467"
"2023-05-13 17:00",11.7607505375094,"Approved","OW467"
"2023-05-13 18:00",11.764748952715,"Approved","OW467"
"2023-05-13 19:00",11.7697473679206,"Approved","OW467"
"2023-05-13 20:00",11.7687457831262,"Approved","OW467"
"2023-05-13 21:00",11.7567441983317,"Approved","OW467"
"2023-05-13 22:00",11.7557426135373,"Approved","OW467"
"2023-05-13 23:00",11.7427410287429,"Approved","OW467"
"2023-05-14 00:00",11.7127394439485,"Approved","OW467"
"2023-05-14 01:00",11.680737859154,"Approved","OW467"
"2023-05-14 02:00",11.6237362743596,"Approved","OW467"
"2023-05-14 03:00",11.6207346895652,"Approved","OW467"
"2023-05-14 04:00",11.6197331047708,"Approved","OW467"
"2023-05-14 05:00",11.6207315199763,"Approved","OW467"
"2023-05-14 06:00",11.6237299351819,"Approved","OW467"
"2023-05-14 07:00",11.6257283503875,"Approved","OW467"
"2023-05-14 08:00",11.6287267655931,"Approved","OW467"
"2023-05-14 09:00",11.6307251807986,"Approved","OW467"
"2023-05-14 10:00",11.6327235960042,"Approved","OW467"
"2023-05-14 11:00",11.6337220112098,"Approved","OW467"
"2023-05-14 12:00",11.6357204264154,"Approved","OW467"
"2023-05-14 13:00",11.6367188416209,"Approved","OW467"
"2023-05-14 14:00",11.6377172568265,"Approved","OW467"
"2023-05-14 15:00",11.6377156720321,"Approved","OW467"
"2023-05-14 16:00",11.6377140872377,"Approved","OW467"
"2023-05-14 17:00",11.6357125024432,"Approved","OW467"
"2023-05-14 18:00",11.6327109176488,"Approved","OW467"
"2023-05-14 19:00",11.6287093328544,"Approved","OW467"
"2023-05-14 20:00",11.6227077480599,"Approved","OW467"
"2023-05-14 21:00",11.6167061632655,"Approved","OW467"
"2023-05-14 22:00",11.6107045784711,"Approved","OW467"
"2023-05-14 23:00",11.6047029936767,"Approved","OW467"
"2023-05-15 00:00",11.5987014088822,"Approved","OW467"
"2023-05-15 01:00",11.5936998240878,"Approved","OW467"
"2023-05-15 02:00",11.5896982392934,"Approved","OW467"
"2023-05-15 03:00",11.587696654499,"Approved","OW467"
"2023-05-15 04:00",11.5866950697045,"Approved","OW467"
"2023-05-15 05:00",11.5886934849101,"Approved","OW467"
"2023-05-15 06:00",11.5896919001157,"Approved","OW467"
"2023-05-15 07:00",11.5926903153213,"Approved","OW467"
"2023-05-15 08:00",11.5936887305268,"Approved","OW467"
"2023-05-15 09:00",11.5946871457324,"Approved","OW467"
"2023-05-15 10:00",11.596685560938,"Approved","OW467"
"2023-05-15 11:00",11.5986839761436,"Approved","OW467"
"2023-05-15 12:00",11.5996823913491,"Approved","OW467"
"2023-05-15 13:00",11.6016808065547,"Approved","OW467"
"2023-05-15 14:00",11.6036792217603,"Approved","OW467"
"2023-05-15 15:00",11.6036776369659,"Approved","OW467"
"2023-05-15 16:00",11.6046760521714,"Approved","OW467"
"2023-05-15 17:00",11.603674467377,"Approved","OW467"
"2023-05-15 18:00",11.6016728825826,"Approved","OW467"
"2023-05-15 19:00",11.5986712977882,"Approved","OW467"
"2023-05-15 20:00",11.5956697129937,"Approved","OW467"
"2023-05-15 21:00",11.5916681281993,"Approved","OW467"
"2023-05-15 22:00",11.5886665434049,"Approved","OW467"
"2023-05-15 23:00",11.5856649586105,"Approved","OW467"
"2023-05-16 00:00",11.583663373816,"Approved","OW467"
"2023-05-16 01:00",11.5816617890216,"Approved","OW467"
"2023-05-16 02:00",11.5806602042272,"Approved","OW467"
"2023-05-16 03:00",11.5796586194328,"Approved","OW467"
"2023-05-16 04:00",11.5796570346383,"Approved","OW467"
"2023-05-16 05:00",11.5816554498439,"Approved","OW467"
"2023-05-16 06:00",11.5836538650495,"Approved","OW467"
"2023-05-16 07:00",11.585652280255,"Approved","OW467"
"2023-05-16 08:00",11.5876506954606,"Approved","OW467"
"2023-05-16 09:00",11.5896491106662,"Approved","OW467"
"2023-05-16 10:00",11.5916475258718,"Approved","OW467"
"2023-05-16 11:00",11.5936459410773,"Approved","OW467"
"2023-05-16 12:00",11.5956443562829,"Approved","OW467"
"2023-05-16 13:00",11.5976427714885,"Approved","OW467"
"2023-05-16 14:00",11.6006411866941,"Approved","OW467"
"2023-05-16 15:00",11.6026396018996,"Approved","OW467"
"2023-05-16 16:00",11.6056380171052,"Approved","OW467"
"2023-05-16 17:00",11.6086364323108,"Approved","OW467"
"2023-05-16 18:00",11.6106348475164,"Approved","OW467"
"2023-05-16 19:00",11.6106332627219,"Approved","OW467"
"2023-05-16 20:00",11.6106316779275,"Approved","OW467"
"2023-05-16 21:00",11.6086300931331,"Approved","OW467"
"2023-05-16 22:00",11.6056285083387,"Approved","OW467"
"2023-05-16 23:00",11.6016269235442,"Approved","OW467"
"2023-05-17 00:00",11.5986253387498,"Approved","OW467"
"2023-05-17 01:00",11.5956237539554,"Approved","OW467"
"2023-05-17 02:00",11.593622169161,"Approved","OW467"
"2023-05-17 03:00",11.5946205843665,"Approved","OW467"
"2023-05-17 04:00",11.5936189995721,"Approved","OW467"
"2023-05-17 05:00",11.5936174147777,"Approved","OW467"
"2023-05-17 06:00",11.5946158299833,"Approved","OW467"
"2023-05-17 07:00",11.5966142451888,"Approved","OW467"
"2023-05-17 08:00",11.5986126603944,"Approved","OW467"
"2023-05-17 09:00",11.5996110756,"Approved","OW467"
"2023-05-17 10:00",11.6006094908056,"Approved","OW467"
"2023-05-17 11:00",11.6006079060111,"Approved","OW467"
"2023-05-17 12:00",11.6016063212167,"Approved","OW467"
"2023-05-17 13:00",11.6026047364223,"Approved","OW467"
"2023-05-17 14:00",11.6036031516278,"Approved","OW467"
"2023-05-17 15:00",11.6036015668334,"Approved","OW467"
"2023-05-17 16:00",11.603599982039,"Approved","OW467"
"2023-05-17 17:00",11.6035983972446,"Approved","OW467"
"2023-05-17 18:00",11.6025968124501,"Approved","OW467"
"2023-05-17 19:00",11.5995952276557,"Approved","OW467"
"2023-05-17 20:00",11.5945936428613,"Approved","OW467"
"2023-05-17 21:00",11.5895920580669,"Approved","OW467"
"2023-05-17 22:00",11.5845904732724,"Approved","OW467"
"2023-05-17 23:00",11.578588888478,"Approved","OW467"
"2023-05-18 00:00",11.5735873036836,"Approved","OW467"
"2023-05-18 01:00",11.5685857188892,"Approved","OW467"
"2023-05-18 02:00",11.5645841340947,"Approved","OW467"
"2023-05-18 03:00",11.5635825493003,"Approved","OW467"
"2023-05-18 04:00",11.5635809645059,"Approved","OW467"
"2023-05-18 05:00",11.5645793797115,"Approved","OW467"
"2023-05-18 06:00",11.566577794917,"Approved","OW467"
"2023-05-18 07:00",11.5695762101226,"Approved","OW467"
"2023-05-18 08:00",11.5725746253282,"Approved","OW467"
"2023-05-18 09:00",11.5755730405338,"Approved","OW467"
"2023-05-18 10:00",11.5785714557393,"Approved","OW467"
"2023-05-18 11:00",11.5815698709449,"Approved","OW467"
"2023-05-18 12:00",11.5845682861505,"Approved","OW467"
"2023-05-18 13:00",11.5875667013561,"Approved","OW467"
"2023-05-18 14:00",11.5905651165616,"Approved","OW467"
"2023-05-18 15:00",11.5925635317672,"Approved","OW467"
"2023-05-18 16:00",11.5945619469728,"Approved","OW467"
"2023-05-18 17:00",11.5955603621784,"Approved","OW467"
"2023-05-18 18:00",11.5965587773839,"Approved","OW467"
"2023-05-18 19:00",11.5965571925895,"Approved","OW467"
"2023-05-18 20:00",11.5965556077951,"Approved","OW467"
"2023-05-18 21:00",11.5955540230007,"Approved","OW467"
"2023-05-18 22:00",11.5935524382062,"Approved","OW467"
"2023-05-18 23:00",11.5915508534118,"Approved","OW467"
"2023-05-19 00:00",11.5885492686174,"Approved","OW467"
"2023-05-19 01:00",11.5865476838229,"Approved","OW467"
"2023-05-19 02:00",11.5855460990285,"Approved","OW467"
"2023-05-19 03:00",11.5855445142341,"Approved","OW467"
"2023-05-19 04:00",11.5875429294397,"Approved","OW467"
"2023-05-19 05:00",11.5895413446452,"Approved","OW467"
"2023-05-19 06:00",11.5935397598508,"Approved","OW467"
"2023-05-19 07:00",11.5985381750564,"Approved","OW467"
"2023-05-19 08:00",11.602536590262,"Approved","OW467"
"2023-05-19 09:00",11.6055350054675,"Approved","OW467"
"2023-05-19 10:00",11.6095334206731,"Approved","OW467"
"2023-05-19 11:00",11.6125318358787,"Approved","OW467"
"2023-05-19 12:00",11.6155302510843,"Approved","OW467"
"2023-05-19 13:00",11.6175286662898,"Approved","OW467"
"2023-05-19 14:00",11.6205270814954,"Approved","OW467"
"2023-05-19 15:00",11.621525496701,"Approved","OW467"
"2023-05-19 16:00",11.6235239119066,"Approved","OW467"
"2023-05-19 17:00",11.6245223271121,"Approved","OW467"
"2023-05-19 18:00",11.6235207423177,"Approved","OW467"
"2023-05-19 19:00",11.6225191575233,"Approved","OW467"
"2023-05-19 20:00",11.6185175727289,"Approved","OW467"
"2023-05-19 21:00",11.6155159879344,"Approved","OW467"
"2023-05-19 22:00",11.61151440314,"Approved","OW467"
"2023-05-19 23:00",11.6075128183456,"Approved","OW467"
"2023-05-20 00:00",11.6035112335512,"Approved","OW467"
"2023-05-20 01:00",11.5995096487567,"Approved","OW467"
"2023-05-20 02:00",11.5955080639623,"Approved","OW467"
"2023-05-20 03:00",11.5915064791679,"Approved","OW467"
"2023-05-20 04:00",11.5905048943735,"Approved","OW467"
"2023-05-20 05:00",11.592503309579,"Approved","OW467"
"2023-05-20 06:00",11.5955017247846,"Approved","OW467"
"2023-05-20 07:00",11.5985001399902,"Approved","OW467"
"2023-05-20 08:00",11.6014985551957,"Approved","OW467"
"2023-05-20 09:00",11.6044969704013,"Approved","OW467"
"2023-05-20 10:00",11.6074953856069,"Approved","OW467"
"2023-05-20 11:00",11.6094938008125,"Approved","OW467"
"2023-05-20 12:00",11.611492216018,"Approved","OW467"
"2023-05-20 13:00",11.6124906312236,"Approved","OW467"
"2023-05-20 14:00",11.6144890464292,"Approved","OW467"
"2023-05-20 15:00",11.6154874616348,"Approved","OW467"
"2023-05-20 16:00",11.6164858768403,"Approved","OW467"
"2023-05-20 17:00",11.6174842920459,"Approved","OW467"
"2023-05-20 18:00",11.6164827072515,"Approved","OW467"
"2023-05-20 19:00",11.6154811224571,"Approved","OW467"
"2023-05-20 20:00",11.6124795376626,"Approved","OW467"
"2023-05-20 21:00",11.6084779528682,"Approved","OW467"
"2023-05-20 22:00",11.6024763680738,"Approved","OW467"
"2023-05-20 23:00",11.5964747832794,"Approved","OW467"
"2023-05-21 00:00",11.5914731984849,"Approved","OW467"
"2023-05-21 01:00",11.5884716136905,"Approved","OW467"
"2023-05-21 02:00",11.5874700288961,"Approved","OW467"
"2023-05-21 03:00",11.5884684441017,"Approved","OW467"
"2023-05-21 04:00",11.5914668593072,"Approved","OW467"
"2023-05-21 05:00",11.5964652745128,"Approved","OW467"
"2023-05-21 06:00",11.6014636897184,"Approved","OW467"
"2023-05-21 07:00",11.605462104924,"Approved","OW467"
"2023-05-21 08:00",11.6074605201295,"Approved","OW467"
"2023-05-21 09:00",11.6074589353351,"Approved","OW467"
"2023-05-21 10:00",11.6064573505407,"Approved","OW467"
"2023-05-21 11:00",11.6044557657463,"Approved","OW467"
"2023-05-21 12:00",11.6044541809518,"Approved","OW467"
"2023-05-21 13:00",11.6054525961574,"Approved","OW467"
"2023-05-21 14:00",11.607451011363,"Approved","OW467"
"2023-05-21 15:00",11.6064494265686,"Approved","OW467"
"2023-05-21 16:00",11.6054478417741,"Approved","OW467"
"2023-05-21 17:00",11.6044462569797,"Approved","OW467"
"2023-05-21 18:00",11.6044446721853,"Approved","OW467"
"2023-05-21 19:00",11.6024430873908,"Approved","OW467"
"2023-05-21 20:00",11.5984415025964,"Approved","OW467"
"2023-05-21 21:00",11.594439917802,"Approved","OW467"
"2023-05-21 22:00",11.5884383330076,"Approved","OW467"
"2023-05-21 23:00",11.5864367482131,"Approved","OW467"
"2023-05-22 00:00",11.5844351634187,"Approved","OW467"
"2023-05-22 01:00",11.5834335786243,"Approved","OW467"
"2023-05-22 02:00",11.5834319938299,"Approved","OW467"
"2023-05-22 03:00",11.5834304090354,"Approved","OW467"
"2023-05-22 04:00",11.584428824241,"Approved","OW467"
"2023-05-22 05:00",11.5844272394466,"Approved","OW467"
"2023-05-22 06:00",11.5844256546522,"Approved","OW467"
"2023-05-22 07:00",11.5844240698577,"Approved","OW467"
"2023-05-22 08:00",11.5844224850633,"Approved","OW467"
"2023-05-22 09:00",11.5844209002689,"Approved","OW467"
"2023-05-22 10:00",11.5864193154745,"Approved","OW467"
"2023-05-22 11:00",11.58841773068,"Approved","OW467"
"2023-05-22 12:00",11.5904161458856,"Approved","OW467"
"2023-05-22 13:00",11.5924145610912,"Approved","OW467"
"2023-05-22 14:00",11.5944129762968,"Approved","OW467"
"2023-05-22 15:00",11.5954113915023,"Approved","OW467"
"2023-05-22 16:00",11.5964098067079,"Approved","OW467"
"2023-05-22 17:00",11.5964082219135,"Approved","OW467"
"2023-05-22 18:00",11.5974066371191,"Approved","OW467"
"2023-05-22 19:00",11.5974050523246,"Approved","OW467"
"2023-05-22 20:00",11.5974034675302,"Approved","OW467"
"2023-05-22 21:00",11.5984018827358,"Approved","OW467"
"2023-05-22 22:00",11.5994002979414,"Approved","OW467"
"2023-05-22 23:00",11.6013987131469,"Approved","OW467"
"2023-05-23 00:00",11.6033971283525,"Approved","OW467"
"2023-05-23 01:00",11.6053955435581,"Approved","OW467"
"2023-05-23 02:00",11.6063939587636,"Approved","OW467"
"2023-05-23 03:00",11.6073923739692,"Approved","OW467"
"2023-05-23 04:00",11.6093907891748,"Approved","OW467"
"2023-05-23 05:00",11.6093892043804,"Approved","OW467"
"2023-05-23 06:00",11.6103876195859,"Approved","OW467"
"2023-05-23 07:00",11.6113860347915,"Approved","OW467"
"2023-05-23 08:00",11.6123844499971,"Approved","OW467"
"2023-05-23 09:00",11.6133828652027,"Approved","OW467"
"2023-05-23 10:00",11.6123812804082,"Approved","OW467"
"2023-05-23 11:00",11.6123796956138,"Approved","OW467"
"2023-05-23 12:00",11.6133781108194,"Approved","OW467"
"2023-05-23 13:00",11.613376526025,"Approved","OW467"
"2023-05-23 14:00",11.6133749412305,"Approved","OW467"
"2023-05-23 15:00",11.6123733564361,"Approved","OW467"
"2023-05-23 16:00",11.6113717716417,"Approved","OW467"
"2023-05-23 17:00",11.6103701868473,"Approved","OW467"
"2023-05-23 18:00",11.6083686020528,"Approved","OW467"
"2023-05-23 19:00",11.6063670172584,"Approved","OW467"